Location: Cahas Mountain Overlook
(37.0833°N, 80.1000°W)
Time: 03:08:26
(UTC-05:00)

Vanguard 1 - Visible Passes

Search period start: 15 February 2026 00:00
Search period end: 25 February 2026 00:00
Orbit: 652 x 3820 km, 34.3° (Epoch: 13 February)

Date Brightness Start Highest point End Pass type
(mag) Time Alt. Az. Time Alt. Az. Time Alt. Az.
15 Feb 12.7 18:22:55 10° W 18:38:37 82° S 19:01:19 12° E visible
15 Feb 12.9 20:45:28 10° W 21:05:21 68° SSW 21:13:54 48° SE visible
15 Feb 13.4 23:11:05 10° W 23:26:29 35° WSW 23:26:29 35° WSW visible
16 Feb 12.7 18:42:23 10° W 18:58:31 81° S 19:19:43 15° ESE visible
16 Feb 13.0 21:05:10 10° W 21:25:02 61° SSW 21:32:18 48° SSE visible
16 Feb 13.6 23:31:50 10° W 23:44:54 28° WSW 23:44:54 28° WSW visible
17 Feb 12.8 19:01:52 10° W 19:18:24 78° SSW 19:38:11 19° ESE visible
17 Feb 13.0 21:24:57 10° W 21:44:35 53° SSW 21:50:47 46° S visible
17 Feb 13.9 23:53:18 10° W 00:03:24 21° WSW 00:03:24 21° WSW visible
18 Feb 12.8 19:21:23 10° W 19:38:14 73° SSW 19:56:45 21° ESE visible
18 Feb 13.2 21:44:53 10° W 22:04:01 45° SW 22:09:22 41° S visible
19 Feb 14.1 00:16:13 10° W 00:21:58 14° WSW 00:21:58 14° WSW visible
19 Feb 12.9 19:40:55 10° W 19:58:01 67° SSW 20:15:25 23° SE visible
19 Feb 13.4 22:05:04 10° W 22:23:20 38° SW 22:28:02 35° SSW visible
20 Feb 13.0 20:00:31 10° W 20:17:43 60° SSW 20:34:10 24° SE visible
20 Feb 13.6 22:25:37 10° W 22:42:36 30° SW 22:46:48 29° SSW visible
21 Feb 12.6 17:58:18 10° W 18:11:53 77° S 18:34:26 10° ESE visible
21 Feb 13.1 20:20:11 10° W 20:37:20 53° SSW 20:53:03 24° SSE visible
21 Feb 13.8 22:46:50 10° W 23:01:48 23° SW 23:05:41 22° SSW visible
22 Feb 12.7 18:17:43 10° W 18:31:38 72° SSW 18:54:12 10° ESE visible
22 Feb 13.3 20:40:00 10° W 20:56:52 45° SSW 21:12:02 22° SSE visible
22 Feb 14.0 23:09:18 10° W 23:20:59 17° SW 23:24:41 16° SW visible
23 Feb 12.8 18:37:10 10° W 18:51:20 66° SSW 19:13:47 10° SE visible
23 Feb 13.5 21:00:03 10° W 21:16:21 37° SW 21:31:09 19° SSE visible
23 Feb 14.2 23:35:57 10° WSW 23:40:13 11° SW 23:43:48 10° SW visible
24 Feb 12.9 18:56:39 10° W 19:11:00 59° SSW 19:33:06 10° SE visible
24 Feb 13.7 21:20:27 10° W 21:35:46 30° SW 21:50:23 16° S visible
